#timestamp,LO_Frequency,Hit 
1504724415.1,286047001.7,N
1504724435.8,286047003.3,N
1504724455.7,286047003.1,N
1504724475.5,286047004.4,N
1504724495.3,286047002.3,N
1504724515.2,286047003.2,N
1504724535.9,286047001.9,N
1504724555.7,286047003.1,N
1504724575.5,286047004.1,N
1504724595.4,286047005.3,P
1504724615.2,286047004.2,P
1504724635.1,286047001.5,N
1504724636.0,286047001.5,N
1504724655.8,286046999.7,N
1504724675.6,286047002.5,N
1504724695.4,286047003.0,N
1504724715.3,286047000.4,N
1504724735.1,286047002.1,N
1504724755.8,286047003.7,N
1504724775.7,286047003.8,N
1504724795.5,286047001.9,N
1504724815.3,286047000.0,N
1504724835.2,286047001.5,N
1504724855.9,286047001.6,N
1504724875.7,286047003.0,N
1504724895.6,286047006.0,P
1504724915.4,286047000.5,N
1504724935.2,286046999.3,N
1504724955.1,286046998.6,N
1504724956.0,286046998.6,N
1504724975.8,286047000.1,N
1504724995.6,286047003.6,N
1504725015.5,286047003.2,N
1504725035.3,286047001.7,N
1504725055.1,286047001.5,N
1504725075.9,286047005.2,N
1504725095.7,286047003.8,N
1504725115.5,286047003.1,N
1504725135.3,286047004.2,N
1504725155.2,286047003.5,N
1504725175.0,286047003.0,N
1504725175.9,286047003.0,N
1504725195.7,286047004.2,N
1504725215.6,286047003.0,N
1504725235.4,286047003.5,N
1504725255.2,286047004.0,N
1504725275.1,286047003.5,N
1504725276.0,286047003.5,N
1504725295.8,286047004.3,N
1504725315.6,286047004.8,N
1504725335.5,286047006.4,P
1504725395.3,286047005.4,P
1504725415.2,286047001.4,P
1504725435.9,286047002.7,N
1504725455.7,286047003.9,N
1504725475.5,286047004.2,N
1504725495.4,286047000.1,N
1504725515.2,286046999.8,N
1504725535.0,286047001.4,N
1504725535.9,286047001.4,N
1504725555.8,286047002.7,N
1504725575.6,286047000.0,N
1504725595.4,286047001.1,N
1504725615.3,286047000.1,N
1504725635.1,286047002.4,N
1504725655.8,286047004.0,N
1504725675.7,286047003.1,N
1504725695.5,286047002.6,N
1504725715.3,286047001.3,N
1504725735.2,286047002.2,N
1504725755.9,286047002.4,N
1504725775.7,286047004.0,N
1504725795.5,286047003.1,N
1504725815.4,286047004.8,N
1504725835.2,286047005.9,P
1504725855.1,286047004.3,N
1504725856.0,286047004.3,P
1504725875.8,286046999.9,N
1504725895.6,286047002.6,N
1504725915.4,286047001.5,N
1504725935.3,286047003.5,N
1504725955.1,286047004.2,N
1504725975.8,286047003.9,N
1504725995.7,286047003.5,N
1504726015.5,286047002.3,N
1504726035.3,286047003.8,N
1504726055.2,286047001.8,N
1504726075.9,286047004.3,N
1504726095.7,286047003.2,N
1504726115.6,286047004.5,P
1504726135.4,286047003.4,P
1504726155.2,286047005.1,P
1504726175.1,286047004.0,P
1504726176.0,286047004.0,P
1504726195.8,286046998.7,P
1504726215.6,286046998.9,N
1504726235.5,286047001.1,N
1504726255.3,286046996.7,N
1504726275.1,286046995.4,N
1504726295.9,286046999.5,N
1504726315.7,286046996.9,N
1504726335.5,286046997.5,N
1504726355.4,286046997.1,N
1504726375.2,286046997.8,N
1504726395.0,286046999.5,N
1504726395.9,286046999.5,N
1504726415.7,286046996.7,N
1504726435.6,286046998.9,N
1504726455.4,286047001.6,N
1504726475.2,286047001.2,N
1504726495.1,286047001.0,N
1504726496.0,286047001.0,N
1504726515.8,286047002.4,N
1504726535.6,286047001.1,N
1504726555.5,286047000.3,N
1504726575.3,286046998.3,N
1504726595.1,286047000.4,N
1504726615.9,286046998.5,N
1504726635.7,286047002.0,N
1504726655.5,286047001.7,N
1504726675.4,286047003.9,N
1504726695.2,286047002.6,N
1504726715.0,286047000.2,N
1504726715.9,286047000.2,N
1504726735.7,286047000.9,N
1504726755.6,286047002.3,N
1504726775.4,286047004.1,N
1504726795.3,286047007.1,P
1504726815.1,286047008.8,N
1504726816.0,286047008.8,N
1504726835.8,286047004.6,N
1504726855.7,286047004.6,N
1504726875.5,286047006.4,N
1504726895.3,286047008.9,P
1504726915.2,286046998.4,N
1504726935.9,286046997.3,N
1504726955.7,286046997.5,N
1504726975.6,286046999.2,N
1504726995.4,286046998.5,N
1504727015.2,286047001.0,N
1504727035.0,286046999.0,N
1504727035.9,286046999.0,N
1504727055.8,286047000.5,N
1504727075.6,286047002.8,N
1504727095.2,286047001.5,N
1504727115.1,286047002.1,N
1504727116.0,286047002.1,N
1504727135.8,286047002.4,N
1504727155.6,286047002.7,N
1504727175.5,286047000.2,N
1504727195.3,286047002.1,N
1504727215.1,286047001.0,N
1504727235.9,286047001.1,N
1504727255.7,286047002.2,N
1504727275.5,286047002.9,N
1504727295.3,286047007.6,N
1504727315.2,286047006.3,N
1504727335.0,286047010.7,P
1504727335.9,286047010.7,N
1504727355.8,286047008.8,N
1504727375.6,286047007.1,N
1504727395.4,286047009.9,N
1504727415.2,286047008.0,N
1504727435.1,286047006.4,N
1504727436.0,286047006.4,N
1504727455.8,286047003.0,N
1504727475.6,286047005.6,N
1504727495.5,286047002.2,N
1504727515.3,286047003.8,N
1504727535.1,286047003.6,N
1504727555.9,286047003.2,N
1504727575.7,286047003.4,N
1504727595.5,286047004.0,N
1504727615.4,286047004.1,N
1504727635.2,286047007.2,N
1504727655.0,286047007.5,N
1504727655.9,286047007.5,N
1504727675.8,286047005.0,N
1504727695.6,286047004.9,N
1504727715.4,286047004.1,N
1504727735.3,286047004.2,N
1504727755.1,286047007.6,N
1504727756.0,286047007.6,P
1504727775.8,286046995.6,P
1504727795.7,286046996.9,N
1504727815.5,286047000.3,N
1504727835.3,286047001.2,N
1504727855.2,286046997.7,N
1504727875.9,286046999.6,N
1504727895.7,286046995.3,N
1504727915.5,286046996.8,N
1504727935.4,286047001.2,N
1504727955.2,286047000.7,N
1504727975.0,286046996.2,N
1504727975.9,286046996.2,N
1504727995.8,286046995.3,N
